DW8923 Weather Reports


time (UTC)temp
F
wind
direction
speed
knots
gust
knots
rain 1hr
in
rain 24hr
in
rain mn
in
humidity
%
barometer
mb
20260503021534 62 67 0.0 0.0 0.00 0.01 0.01 72 1019.8
20260503020034 64 67 0.0 0.0 0.00 0.01 0.01 69 1019.8
20260503014533 66 67 0.0 0.0 0.00 0.01 0.01 65 1019.7
20260503013033 67 67 0.0 0.0 0.00 0.01 0.01 61 1019.7
20260503011534 69 67 0.0 0.9 0.00 0.01 0.01 57 1019.5
20260503010036 70 67 0.0 0.9 0.00 0.01 0.01 51 1019.4
20260503004531 71 67 0.0 0.9 0.00 0.01 0.01 47 1019.3
20260503003030 71 39 0.0 3.5 0.00 0.01 0.01 44 1019.4
20260503001530 72 43 0.9 3.5 0.00 0.01 0.01 42 1019.3
20260503000029 72 30 0.9 3.5 0.00 0.01 0.01 41 1019.3
20260502234545 73 29 1.7 3.5 0.00 0.01 0.01 39 1019.1
20260502233028 74 12 3.5 7.8 0.00 0.01 0.01 38 1019.1
20260502231527 74 38 0.9 4.3 0.00 0.01 0.01 38 1019.1
20260502230028 74 31 0.0 5.2 0.00 0.01 0.01 39 1019.1
20260502224525 75 50 1.7 4.3 0.00 0.08 0.01 38 1019.0
20260502223025 75 67 0.0 4.3 0.00 0.08 0.01 40 1019.2
20260502221523 75 350 1.7 5.2 0.00 0.08 0.01 41 1019.3
20260502220123 75 15 2.6 7.0 0.00 0.08 0.01 40 1019.4
20260502214534 75 102 2.6 8.7 0.00 0.14 0.01 42 1019.4
20260502213021 75 84 1.7 7.0 0.00 0.14 0.01 46 1019.6
20260502211525 75 86 2.6 8.7 0.00 0.14 0.01 41 1019.9
20260502210025 75 62 3.5 10.4 0.00 0.14 0.01 40 1020.2
20260502204519 74 355 2.6 9.6 0.00 0.16 0.01 40 1020.5
20260502203017 74 313 3.5 9.6 0.00 0.16 0.01 39 1020.6
20260502201516 75 333 3.5 7.8 0.00 0.16 0.01 42 1020.7
20260502200013 74 44 2.6 8.7 0.00 0.16 0.01 41 1020.7
20260502194512 73 77 1.7 8.7 0.00 0.20 0.01 44 1020.7
20260502193011 73 53 2.6 9.6 0.00 0.20 0.01 42 1020.9
20260502191516 73 311 4.3 11.3 0.00 0.20 0.01 45 1020.9
20260502190005 72 313 2.6 12.2 0.00 0.20 0.01 45 1021.0
20260502184509 72 17 3.5 9.6 0.00 0.40 0.01 45 1021.1
20260502183002 71 311 2.6 8.7 0.00 0.40 0.01 46 1021.3
20260502181558 71 185 2.6 7.0 0.00 0.40 0.01 53 1021.6
20260502180107 70 81 2.6 8.7 0.00 0.40 0.01 53 1022.1
20260502163041 66 310 1.7 7.0 0.00 0.40 0.01 63 1022.9
20260502161538 66 259 3.5 7.8 0.00 0.40 0.01 60 1023.1
20260502151527 63 299 0.9 5.2 0.01 0.56 0.01 70 1022.9
20260502123051 47 244 0.9 2.6 0.00 0.81 0.00 96 1021.4
20260502121551 46 219 0.0 1.7 0.00 0.81 0.00 95 1021.2
20260502114545 46 219 0.0 0.9 0.00 0.92 0.00 95 1020.4
20260502113039 47 219 0.0 1.7 0.00 0.92 0.00 95 1020.3
20260502111540 47 219 0.0 0.9 0.00 0.92 0.00 95 1020.3
20260502110036 47 219 0.0 1.7 0.00 0.92 0.00 95 1019.8
20260502104530 48 348 0.0 0.9 0.00 1.00 0.00 95 1019.4
20260502103028 48 348 0.0 1.7 0.00 1.00 0.00 95 1018.8
20260502101526 48 348 0.0 2.6 0.00 1.00 0.00 95 1018.9
20260502071514 49 296 0.9 2.6 0.00 1.06 0.00 95 1018.5
20260502070019 50 296 0.0 1.7 0.00 1.06 0.00 95 1018.4
20260502064505 50 296 0.0 1.7 0.00 1.07 0.00 94 1018.5
20260502063005 50 296 0.0 0.9 0.00 1.07 0.00 94 1018.3
20260502061501 50 296 0.0 0.9 0.00 1.07 0.00 94 1018.3
20260502060100 51 296 0.0 0.9 0.00 1.07 0.00 94 1018.2
20260502054604 51 296 0.9 3.5 0.00 1.08 0.00 94 1018.4
20260502053059 51 296 0.0 2.6 0.00 1.08 0.00 94 1018.4
20260502051556 52 296 0.0 1.7 0.00 1.08 0.00 94 1018.3
20260502050058 52 296 0.0 0.9 0.00 1.08 0.00 94 1018.0
20260502044552 52 296 0.0 1.7 0.00 1.09 1.08 94 1018.0
20260502043051 53 296 0.9 2.6 0.00 1.09 1.08 94 1018.0
20260502041548 53 296 0.0 1.7 0.00 1.09 1.08 94 1017.8
20260502040047 53 296 0.9 1.7 0.00 1.09 1.08 94 1017.9
20260502034548 53 296 0.0 2.6 0.00 1.22 1.08 94 1017.9
20260502033048 53 310 0.9 2.6 0.00 1.22 1.08 94 1017.8
20260502031545 54 301 0.9 3.5 0.00 1.22 1.08 94 1017.9
20260502030043 54 313 0.0 2.6 0.00 1.22 1.08 94 1017.7
20260502024541 53 304 0.9 3.5 0.00 1.27 1.08 94 1017.5
20260502023043 53 60 0.0 4.3 0.00 1.27 1.08 94 1017.3